sat.trackr.live / text

‹ back to catalog

GAOFEN-1 04

NORAD 43262 · 2018-031D

PAYLOAD ACTIVE UNKNOWN

§ Identity

Operator
Country
PRC
Launch date
2018-03-31
Launch site
TAISC
Launch vehicle
Mass (kg)
RCS (m²)

Purposes: earth_obs

External: N2YO · Heavens-Above · Gunter

§ Orbital elements

Epoch: 2026-09-13T05:14:52.903104Z

Period
97.53 min
Inclination
98.0450°
Eccentricity
0.0002190
Mean motion
14.76476434 rev/d
Perigee alt
638.9 km
Apogee alt
642.0 km
Semi-major
7,018.6 km
B*
1.1202e-4
RAAN
318.5101°
Arg perigee
105.7355°
Mean anomaly
254.4096°
Rev number
45,567

§ Raw data

GAOFEN-1 041 43262U 18031D   26256.21866786  .00000728  00000+0  11202-3 0  99902 43262  98.0450 318.5101 0002190 105.7355 254.4096 14.76476434455675

JSON: /api/v1/satellites/43262 · /tle

For live sub-satellite position, see the globe view (requires WebGL).

§ Visibility from observer

Set your observer location to see the next 7 days of passes ≥ 10°. The values pass through the URL so the page stays shareable.

No JS? Fill the form by hand. The geolocation button needs JavaScript.